map of NST home
Great Circle Mapper logo
NST - Airport
Location
City:  Nakhon Si Thammarat, Nakhon Si Thammarat, Thailand
ICAO:VTSF
IATA:NST

Details
Type:Airport (Aerodrome, Airfield)
Use:Public/Civil
Latitude:8°32'23"N (8.539617)
Longitude:99°56'41"E (99.944725)
Datum:WGS 1984
Elevation:13 ft (4 m)
Variation:0.37°W (WMM2015 magnetic declination)
0.01° annual change
Runways:1
Longest:6890 × 148 ft (2100 × 45 m), paved

Time
Time Zone:UTC+7
Local Time:

Weather
METAR:VTSF 281000Z 11004KT 080V160 9000 -RA FEW016CB SCT018 BKN022 24/24 Q1007 A2976
TAF:VTSF 280500Z 2806/2906 21006KT 9999 SCT020
TEMPO 2806/2812 VRB13KT 5000 TSRA FEW016CB SCT018 BKN100
BECMG 2812/2814 00000KT
BECMG 2821/2823 5000 BR
BECMG 2903/2905 22006KT 9999

Related Locations
Nearby:
Farthest:TRU: 12372 mi / 19911 km
Trujillo [Capitán FAP Carlos Martínez de Pinillos Intl], LAL, PE

Find:

   beyond  
but within

Other Information
Maps:
NOTAMs:
Links:
Sources:

  
flag of Thailand   

Sectional Chart

Flight Planning
at skyvector.com

Satellite Image

Google Maps Satellite view

 

Copyright © 2004-2016 Karl L. Swartz. All rights reserved.
The Great Circle Mapper name and logo are trademarks of the Great Circle Mapper.
All other trademarks mentioned herein belong to their respective owners.
Please see credits for attibutions and further copyright information.

  Follow gcmap on Facebook Follow gcmap on Twitter Follow gcmap on Google+ GCmap on LinkedIn

hCard Microformat

Geo Microformat